DW4212 Weather Reports


time (UTC)temp
C
wind
direction
speed
KPH
gust
KPH
rain 1hr
cm
rain 24hr
cm
rain mn
cm
humidity
%
barometer
mb
20260508032916 6 121 0.0 0.0 0.00 2.79 0.00 91 1011.9
20260508031926 5 121 0.0 0.0 0.00 2.79 0.00 91 1011.8
20260508030917 6 121 0.0 0.0 0.00 2.79 0.00 90 1011.9
20260508025921 6 121 0.0 0.0 0.00 2.79 0.00 91 1011.8
20260508024915 6 121 0.0 0.0 0.00 2.79 0.00 91 1011.8
20260508023924 6 121 0.0 0.0 0.00 2.79 0.00 91 1012.0
20260508022926 6 121 0.0 0.0 0.00 2.79 0.00 91 1012.0
20260508021914 6 121 0.0 0.0 0.00 2.79 0.00 90 1012.1
20260508020923 6 121 0.0 0.0 0.00 2.79 0.00 91 1012.4
20260508015928 6 121 0.0 0.0 0.00 2.79 0.00 90 1012.4
20260508014915 6 121 0.0 0.0 0.00 2.79 0.00 90 1012.4
20260508013925 6 121 0.0 0.0 0.00 2.79 0.00 90 1012.5
20260508012925 6 121 0.0 0.0 0.00 2.79 0.00 90 1012.5
20260508011919 6 121 0.0 0.0 0.00 2.79 0.00 90 1012.6
20260508010929 6 121 0.0 0.0 0.00 2.79 0.00 90 1012.7
20260508005911 6 121 0.0 0.0 0.00 2.79 0.00 90 1012.8
20260508004921 6 121 0.0 0.0 0.00 2.79 0.00 90 1013.0
20260508002924 6 121 0.0 0.0 0.00 2.79 0.00 89 1013.4
20260508001913 6 121 0.0 0.0 0.00 2.79 0.00 89 1013.4
20260508000922 6 121 0.0 0.0 0.00 2.79 0.00 89 1013.4
20260507235923 6 121 0.0 0.0 0.00 2.79 0.56 89 1013.6
20260507234917 6 121 0.0 0.0 0.00 2.79 0.56 88 1013.7
20260507233927 6 121 0.0 0.0 0.00 2.79 0.56 88 1013.7
20260507232929 6 121 0.0 0.0 0.00 2.79 0.56 88 1013.7
20260507230928 6 121 0.0 0.0 0.00 2.79 0.56 87 1014.1
20260507225911 6 121 0.0 0.0 0.00 2.79 0.56 87 1014.0
20260507224920 7 121 0.0 0.0 0.00 2.79 0.56 87 1014.1
20260507223910 7 121 0.0 0.0 0.00 2.79 0.56 87 1014.0
20260507222914 7 121 0.0 0.0 0.00 2.79 0.56 87 1014.0
20260507221926 7 121 0.0 0.0 0.00 2.79 0.56 86 1014.0
20260507220922 7 121 0.0 0.0 0.00 2.79 0.56 86 1014.1
20260507215926 7 121 0.0 0.0 0.00 2.79 0.56 85 1014.0
20260507214916 7 121 0.0 0.0 0.00 2.79 0.56 85 1014.1
20260507213930 7 121 0.0 0.0 0.00 2.79 0.56 85 1013.8
20260507212914 7 121 0.0 0.0 0.00 2.79 0.56 85 1013.8
20260507210920 7 121 0.0 0.0 0.00 2.79 0.56 84 1013.8
20260507205928 7 121 0.0 0.0 0.00 2.79 0.56 84 1013.4
20260507204935 8 121 0.0 0.0 0.00 2.79 0.56 84 1013.3
20260507202935 8 121 0.0 0.0 0.00 2.79 0.56 82 1013.0
20260507200940 8 121 0.0 0.0 0.00 2.79 0.56 80 1012.8
20260507195944 8 121 0.0 0.0 0.00 2.79 0.56 80 1012.7
20260507194950 9 121 0.0 0.0 0.00 2.79 0.56 79 1012.6
20260507193940 10 121 0.0 0.0 0.00 2.79 0.56 79 1012.6
20260507192947 10 121 0.0 0.0 0.00 2.79 0.56 78 1012.5
20260507191933 10 121 0.0 0.0 0.00 2.79 0.56 77 1012.3
20260507190941 11 121 0.0 0.0 0.00 2.79 0.56 75 1012.3
20260507185943 11 121 0.0 0.0 0.00 2.79 0.56 75 1012.1
20260507184932 11 121 0.0 0.0 0.00 2.79 0.56 74 1012.0
20260507183934 11 121 0.0 0.0 0.00 2.79 0.56 75 1011.9
20260507182939 11 121 0.0 0.0 0.00 2.79 0.56 76 1011.7
20260507181947 11 121 0.0 0.0 0.00 2.79 0.56 76 1011.8
20260507180936 11 121 0.0 1.6 0.00 2.79 0.56 76 1011.7
20260507175940 11 124 0.0 1.6 0.00 2.79 0.56 77 1011.7
20260507174949 10 126 0.0 0.0 0.00 2.79 0.56 78 1011.7
20260507173942 10 127 0.0 0.0 0.00 2.79 0.56 80 1011.8
20260507172946 10 127 0.0 4.8 0.00 2.79 0.56 81 1011.7
20260507171933 10 130 0.0 0.0 0.00 2.79 0.56 82 1011.9
20260507170942 10 132 0.0 0.0 0.00 2.79 0.56 82 1011.9
20260507165943 11 137 0.0 0.0 0.00 2.79 0.56 82 1012.0
20260507163933 11 138 0.0 0.0 0.00 2.79 0.56 80 1012.0
20260507162936 11 138 0.0 0.0 0.00 2.79 0.56 81 1012.1
20260507161942 10 138 0.0 0.0 0.00 2.79 0.56 81 1011.9
20260507160940 11 138 0.0 0.0 0.00 2.79 0.56 86 1011.9
20260507155950 10 138 0.0 0.0 0.00 2.79 0.56 85 1011.9
20260507154943 10 138 0.0 0.0 0.20 2.79 0.56 87 1012.0
20260507153952 10 138 0.0 0.0 0.99 2.79 0.56 88 1012.0
20260507152951 10 138 0.0 0.0 1.60 2.79 0.56 89 1011.9
20260507151939 10 137 0.0 0.0 2.01 2.79 0.56 89 1012.0
20260507150949 10 140 0.0 0.0 2.01 2.79 0.56 89 1012.1
20260507145935 9 140 0.0 1.6 2.01 2.79 0.56 89 1011.9
20260507144945 9 165 0.0 0.0 1.80 2.59 0.51 86 1012.3
20260507143913 10 165 0.0 0.0 0.99 1.80 0.36 86 1012.6
20260507141918 10 171 1.6 16.1 0.00 0.79 0.15 83 1012.7
20260507140929 10 169 6.4 19.3 0.00 0.79 0.15 80 1012.6
20260507135912 11 209 1.6 17.7 0.00 0.79 0.15 77 1012.4
20260507134920 11 153 0.0 6.4 0.00 0.79 0.15 76 1012.2
20260507133911 11 69 0.0 8.0 0.00 0.79 0.15 73 1012.1
20260507132928 12 140 0.0 14.5 0.00 0.79 0.15 70 1012.0
20260507131916 13 136 1.6 11.3 0.00 0.79 0.15 69 1011.8
20260507130927 14 172 0.0 4.8 0.00 0.79 0.15 71 1011.7
20260507125915 14 172 0.0 4.8 0.00 0.79 0.15 70 1011.7
20260507124925 14 175 0.0 4.8 0.00 0.79 0.15 69 1011.8
20260507123915 14 174 0.0 11.3 0.00 0.79 0.15 67 1011.5
20260507122920 15 169 1.6 12.9 0.00 0.79 0.15 64 1011.3
20260507121912 16 169 0.0 11.3 0.00 0.79 0.15 63 1011.6
20260507120920 16 162 1.6 9.7 0.00 0.79 0.15 62 1011.4
20260507115924 16 172 0.0 11.3 0.10 0.79 0.15 63 1011.5
20260507114914 15 183 0.0 12.9 0.10 0.79 0.15 62 1011.6
20260507113928 15 171 0.0 12.9 0.10 0.79 0.15 65 1011.7
20260507112911 14 146 0.0 12.9 0.10 0.79 0.15 68 1012.1
20260507111920 13 121 0.0 3.2 0.10 0.79 0.15 74 1012.4
20260507110910 13 123 1.6 8.0 0.10 0.79 0.15 75 1012.4
20260507105919 13 122 0.0 6.4 0.00 0.71 0.15 74 1012.5
20260507104929 13 122 0.0 6.4 0.00 0.71 0.15 77 1012.6
20260507103918 13 122 0.0 4.8 0.00 0.71 0.15 78 1012.7
20260507102923 13 122 0.0 4.8 0.00 0.71 0.15 78 1012.8
20260507101912 12 122 0.0 11.3 0.00 0.71 0.15 82 1012.8
20260507100921 11 65 0.0 0.0 0.00 0.71 0.15 86 1013.0
20260507095926 10 65 0.0 0.0 0.00 0.71 0.15 86 1012.9
20260507094920 10 65 0.0 0.0 0.00 0.71 0.15 86 1013.0
20260507093930 10 65 0.0 0.0 0.00 0.71 0.15 87 1013.0
20260507092911 10 65 0.0 0.0 0.00 0.71 0.15 88 1012.9
20260507091921 10 65 0.0 0.0 0.00 0.71 0.15 89 1012.9
20260507090915 10 65 0.0 0.0 0.00 0.71 0.15 88 1012.8
20260507085918 10 65 0.0 0.0 0.00 0.79 0.15 89 1012.9
20260507084928 9 65 0.0 0.0 0.00 0.79 0.15 88 1012.8
20260507083919 10 65 0.0 0.0 0.00 0.79 0.15 89 1012.8
20260507082927 9 65 0.0 0.0 0.20 0.79 0.15 89 1012.7
20260507081916 9 65 0.0 0.0 0.20 0.79 0.15 89 1012.7
20260507080926 9 65 0.0 0.0 0.20 0.79 0.15 88 1012.7
20260507075911 9 65 0.0 0.0 0.20 0.79 0.15 88 1012.6
20260507074925 9 65 0.0 4.8 0.30 0.79 0.15 87 1012.5
20260507073916 9 65 0.0 4.8 0.71 0.79 0.15 86 1012.2
20260507072920 9 65 0.0 0.0 0.51 0.61 0.10 85 1012.6
20260507071911 9 65 0.0 0.0 0.51 0.61 0.10 85 1012.5
20260507070918 9 65 0.0 0.0 0.51 0.61 0.10 84 1012.5
20260507065922 9 65 0.0 0.0 0.51 0.61 0.10 83 1012.4
20260507064927 9 65 0.0 0.0 0.41 0.51 0.08 82 1012.4
20260507063924 9 65 0.0 0.0 0.00 0.10 0.00 81 1012.4
20260507062912 9 65 0.0 0.0 0.00 0.10 0.00 81 1012.3
20260507061921 9 65 0.0 0.0 0.00 0.10 0.00 81 1012.3
20260507060912 9 65 0.0 0.0 0.00 0.10 0.00 81 1012.2
20260507055919 9 65 0.0 0.0 0.00 0.10 0.00 80 1012.0
20260507053918 9 65 0.0 0.0 0.00 0.10 0.00 80 1011.9
20260507052928 9 65 0.0 0.0 0.00 0.10 0.00 79 1011.8
20260507051922 9 65 0.0 0.0 0.00 0.10 0.00 79 1011.8
20260507050912 9 65 0.0 0.0 0.00 0.10 0.00 79 1011.8
20260507045916 9 65 0.0 0.0 0.00 0.10 0.00 79 1011.7
20260507044926 9 65 0.0 0.0 0.00 0.10 0.00 79 1011.9
20260507043919 9 65 0.0 0.0 0.00 0.10 0.00 78 1011.9
20260507042923 9 65 0.0 4.8 0.00 0.10 0.00 77 1011.9
20260507041930 9 65 0.0 0.0 0.00 0.10 0.00 77 1011.9
20260507040918 9 65 0.0 0.0 0.00 0.10 0.00 77 1012.0
20260507035924 9 65 0.0 0.0 0.00 0.10 0.00 76 1012.0
20260507034914 9 65 0.0 0.0 0.00 0.10 0.00 76 1012.0
20260507033925 9 65 0.0 0.0 0.00 0.10 0.00 76 1012.1